www.pogodaiklimat.ru

Погода и климат >> Архив погоды >> Италия >> Ольвия


ПОГОДА в Ольвии

  • Прогноз погоды в Ольвии
  • Монитор погоды в Ольвии

АРХИВ ПОГОДЫ в Ольвии

Время (UTC), дата Ветер
(напр.,м/с)
 
Видим.   Явления Облачность Т
(С)
Тd
(С)
f
(%)
Тe
(С)
Тes
(С)
Комфортность P
(гПа)
Po
(гПа)
Тmin
(С)
Tmax
(С)
R
(мм)
R24
(мм)
S
(см)
09 13.04 ЮЗ 2 н/о н/о +15.2 +10.8 75 +15 +15 1013.4 1012.0
12 13.04 В 3 3000 м дождь 10/5 750 м
[Cu Sc Ac trans]
+13.6 +11.8 89 +12 +15 1013.0 1011.6
15 13.04 В 2 12 км 5/5 750 м
[Cu med, cong As op]
+14.6 +12.2 86 +14 +17 1012.6 1011.3
18 13.04 ЮВ 1 12 км слаб. дождь {морось} 10/5 900 м
[Sc diur, vesp As op Ci sp]
+13.8 +12.3 91 +14 +14 1013.1 1011.7 +16.6
21 13.04 ЮЗ 4 н/о н/о +12.0 +9.7 86 +10 +10 1013.9 1012.6
00 14.04 ЮЗ 4 н/о н/о +11.9 +9.7 86 +10 +10 1013.3 1012.0
03 14.04 ЮЗ 6 н/о н/о +11.5 +8.4 81 +9 +9 1012.3 1010.9
06 14.04 ЮЗ 9 20 км ясно +12.1 +8.3 78 +9 +9 1011.4 1010.1 +10.8
09 14.04 З 10 20 км 3/0
[Ci fib]
+16.3 +8.7 61 +14 +15 1011.2 1009.8
12 14.04 З 8 20 км 3/0
[Ci fib]
+17.7 +0.3 31 +17 +20 1010.4 1009.1
15 14.04 З 10 15 км 3/3 600 м
[Cu Sc]
+17.1 +3.7 41 +16 +16 1009.7 1008.3
18 14.04 З 6 15 км ясно +12.9 +4.3 56 +11 +11 1010.5 1009.1 +19.1
21 14.04 З 5 12 км ясно +11.3 +6.5 72 +9 +9 1012.3 1010.9
00 15.04 нст 1 12 км 5/5 900 м
[Sc diur, vesp]
+10.5 +8.1 85 +11 +11 1013.1 1011.7
03 15.04 СЗ 3 12 км 5/5 900 м
[Cu med, cong]
+11.4 +7.3 76 +10 +10 1013.9 1012.6
06 15.04 С 5 н/о н/о +13.3 +8.6 73 +11 +11 1015.6 1014.3 +9.9
09 15.04 С 7 н/о н/о +14.7 +8.6 67 +13 +13 1017.5 1016.2
12 15.04 С 5 21 км 3/3 900 м
[Cu med, cong]
+16.6 +8.3 58 +16 +22 1018.1 1016.8
15 15.04 В 4 21 км 1/1 900 м
[Cu Sc]
+16.8 +10.0 64 +16 +20 1017.9 1016.5
18 15.04 Ю 1 21 км ясно +13.1 +9.1 77 +13 +13 1018.5 1017.1 +17.8
21 15.04 штиль 0 н/о н/о +8.8 +7.4 91 +8 +8 1019.7 1018.3
00 16.04 н/о н/о +8.0 +7.3 95 1019.3 1017.9
03 16.04 З 2 н/о н/о +8.5 +7.5 93 +7 +7 1018.9 1017.5
06 16.04 штиль 0 12 км 10/3 1500 м
[Cu med, cong As op Ci sp]
+9.6 +8.7 94 +9 +9 1019.1 1017.8 +7.1
09 16.04 штиль 0 20 км 10/3 1500 м
[Cu med, cong As op Ci sp]
+15.6 +8.8 64 +15 +21 1020.1 1018.7
12 16.04 СВ 4 15 км 10/3 900 м
[Cu med, cong As op Ci sp]
+16.3 +9.1 62 +16 +20 1020.1 1018.8
15 16.04 В 3 20 км 8/3 1200 м
[Cu hum As op]
+16.4 +10.1 66 +16 +18 1019.5 1018.1
18 16.04 СВ 1 20 км 8/0
[As op]
+14.4 +11.0 80 +15 +15 1019.7 1018.3 +17.0
21 16.04 штиль 0 15 км 3/3 1200 м
[Cu Sc]
+12.8 +11.2 90 +12 +12 1020.6 1019.2
00 17.04 ЮЗ 1 15 км ясно +10.7 +10.2 97 +10 +10 1020.7 1019.3
03 17.04 15 км ясно +8.6 +8.2 97 1020.1 1018.7
06 17.04 штиль 0 21 км ясно +9.8 +9.4 97 +9 +11 1020.8 1019.5 +8.0
09 17.04 СВ 3 19 км 4/4 900 м
[Cu Sc]
+16.8 +12.3 75 +17 +23 1021.4 1020.1
12 17.04 СВ 6 19 км 4/4 900 м
[Cu Sc]
+17.6 +12.3 71 +17 +21 1020.8 1019.4
15 17.04 В 4 20 км 3/3 900 м
[Cu hum]
+17.9 +11.7 67 +18 +21 1020.0 1018.6
18 17.04 В 3 20 км 3/3 900 м
[Cu hum]
+14.9 +11.6 81 +14 +14 1019.8 1018.5 +18.4
21 17.04 Ю 1 21 км ясно +10.3 +9.5 95 +11 +11 1021.2 1019.8
00 18.04 19 км ясно +7.7 +7.3 97 1021.8 1020.4
03 18.04 З 1 19 км ясно +6.7 +6.5 99 +5 +5 1021.0 1019.6
06 18.04 штиль 0 10 км 3/3 600 м
[Cu hum]
+8.8 +8.7 99 +8 +9 1021.5 1020.1 +5.5
09 18.04 В 5 15 км 3/3 750 м
[Cu hum]
+17.2 +11.1 67 +17 +21 1021.8 1020.4
12 18.04 В 6 20 км 3/3 900 м
[Cu hum]
+18.3 +10.7 61 +18 +23 1021.1 1019.7
15 18.04 В 6 20 км 5/3 750 м
[Cu med, cong Ci sp]
+17.4 +11.0 66 +17 +19 1020.9 1019.6
18 18.04 В 3 20 км 5/3 600 м
[Cu med, cong Ci sp]
+15.1 +12.4 84 +14 +14 1021.5 1020.1 +19.0
21 18.04 В 3 20 км 3/3 900 м
[Cu hum]
+12.4 +11.8 96 +11 +11 1022.7 1021.3
00 19.04 нст 1 15 км 3/3 900 м
[Cu hum]
+8.5 +8.1 97 +9 +9 1023.7 1022.3
03 19.04 20 км ясно +7.4 +7.1 98 1023.9 1022.5
06 19.04 нст 1 12 км 5/3 900 м
[Cu med, cong Ci sp]
+9.5 +9.3 99 +10 +11 1024.7 1023.3 +7.1
09 19.04 В 5 15 км 5/3 600 м
[Cu med, cong Ci sp]
+18.1 +13.6 75 +18 +23 1025.5 1024.2
12 19.04 В 6 15 км 5/3 600 м
[Cu med, cong Ci sp]
+19.3 +11.2 59 +20 +24 1025.6 1024.3
15 19.04 В 5 15 км 3/3 600 м
[Cu Sc]
+18.8 +11.4 62 +19 +22 1025.2 1023.9
18 19.04 В 3 15 км 3/3 600 м
[Cu Sc]
+15.6 +13.4 87 +15 +15 1025.4 1024.0 +19.8
21 19.04 В 2 12 км 3/3 450 м
[Cu med, cong]
+13.8 +13.2 96 +13 +13 1026.1 1024.7
00 20.04 З 1 5000 м дымка 5/5 450 м
[Cu med, cong]
+10.2 +9.9 98 +10 +10 1025.3 1024.0
03 20.04 штиль 0 4000 м дымка 5/5 450 м
[Sc diur, vesp]
+8.1 +7.9 99 +7 +7 1024.6 1023.2

 

Местоположение метеостанции Ольвия (Италия): широта 40.90 долгота 9.52 высота над уровнем моря 13 м.

В архиве по умолчанию представлена погода в Ольвии за последнюю неделю. Архивные данные за месяц целиком и за предыдущие месяцы, начиная с января 2011 года, Вы можете получить, выбрав интересующий диапазон дат из раскрывающегося списка и нажав кнопку "Ввод!".


*Определитесь, кто Вы:
робот инопланетянин человек

Внимание! Время в таблицах - всемирное. Для получения местного времени необходимо прибавить поправку, которая равна 1 ч.

Смотрите также архив погоды в соседних городах и на ближайших метеорологических станциях:

Погода на Мысе Пертюзато (Франция) (60 км)
Погода в Фигари (Франция) (75 км)
Погода в Альгеро (Италия) (109 км)
Погода на Капо Беллависто (Италия) (109 км)
Погода в Соленцаре (Франция) (114 км)
Погода на Капо Кацция (Италия) (120 км)
Погода в Аяччо (Франция) (128 км)
Погода в Ла Парате (Франция) (136 км)
Погода в Алистро (Франция) (152 км)
Погода на Капо Фраска (Италия) (156 км)

Пояснения к столбцам:

Ветер - указаны скорость ветра в м/с - средняя за 10 мин, порывы в срок и между сроками (в фигурных скобках) и направление, откуда дует ветер: С - северный, СВ - северо-восточный, В - восточный, ЮВ - юго-восточный, Ю - южный, ЮЗ - юго-западный, З - западный, СЗ - северо-западный.
Видимость - горизонтальная дальность видимости в метрах или километрах. При видимости от 1 до 10 км при отсутствии осадков обычно наблюдается дымка, при ухудшении видимости до 1 км и менее - туман. В сухую погоду видимость может ухудшаться дымом, пылью или мглою.
Явления - указаны атмосферные явления, наблюдавшиеся в срок или в последний час перед сроком; фигурными скобками обозначены явления, наблюдавшиеся между сроками (за 1-3 часа до срока); квадратными скобками обозначены град или гололедные отложения с указанием их диаметра в мм.
Облачность - указаны через наклонную черту общая и нижняя облачность в баллах и высота нижней границы облаков в метрах; квадратными скобками обозначены формы облаков: Ci - перистые, Cs - перисто-слоистые, Cc - перисто-кучевые, Ac - высококучевые, As - высокослоистые, Sc - слоисто-кучевые, Ns - слоисто-дождевые, Cu - кучевые, Cb - кучево-дождевые. Подробнее классификацию облаков см. в Атласе облаков (PDF).
T - Температура воздуха - температура, измеренная на высоте 2 м над землей.
Td - Температура точки росы - температура, при понижении до которой содержащийся в воздухе водяной пар достигнет насыщения.
f - Относительная влажность воздуха - влажноcть воздуха, измеренная на высоте 2 м над землей.
Te - Эффективная температура - температура, которую ощущает одетый по сезону человек в тени. Характеристика душности погоды. При расчете учитывается влияние влажности воздуха и скорости ветра на теплоощущения человека.
Tes - Эффективная температура на солнце - температура, которую ощущает человек, с поправкой на солнечный нагрев. Характеристика знойности погоды. Зависит от высоты солнца над горизонтом, облачности и скорости ветра. Ночью, в пасмурную погоду, а также при ветре 12 м/с и более поправка равна нулю.
P - Атмосферное давление - приведенное к уровню моря атмосферное давление.
Po - Атмосферное давление - измеренное на уровне метеостанции атмосферное давление.
Tmin - Минимальная температура - минимум температуры воздуха на высоте 2 м над землей.
Tmax - Максимальная температура - максимум температуры воздуха на высоте 2 м над землей.
R - Количество осадков - Количество выпавших осадков за период времени, мм. При наведении курсора мыши на число - период времени, за который выпало указанное количество осадков.
R24 - Количество осадков - Количество выпавших осадков за 24 часа, мм.
S - Снежный покров - Высота снежного покрова, см. При наведении курсора мыши на число - состояние снежного покрова и степень покрытия местности в баллах.